This demonstration page uses our WeatherBlox Daily Observations layout. Learn more.

Left ArrowRight Arrow

39.01783, -85.05884

Hourly Observations for August 22, 2022

Temp ( °F °C ) Dew Point ( °F °C ) Humidity (%) Winds ( mph kmh ) Pressure ( in mb ) Visibility ( mi km ) Precip ( " mm )
12:52 am 00:52 Partly Cloudy 68 20 66 18.9 93 93 W 6 9 29.93 1014 8 13 0.00 0.00
1:52 am 01:52 Mostly Clear 67 19.4 66 18.9 97 97 WNW 6 9 29.93 1014 7 11 0.00 0.00
2:52 am 02:52 Clear 66 18.9 66 18.9 100 100 WNW 6 9 29.93 1014 7 11 0.00 0.00
3:52 am 03:52 Clear 67 19.4 63 17.2 87 87 WNW 8 13 29.93 1014 8 13 0.00 0.00
4:52 am 04:52 Clear 66 18.9 66 18.9 100 100 WNW 7 11 29.93 1014 7 11 0.00 0.00
5:52 am 05:52 Clear with Mist and Fog 65 18.3 59 15 81 81 WNW 6 9 29.94 1014 6 10 0.00 0.00
6:52 am 06:52 Mostly Clear with Mist and Fog 64 17.8 N/A N/A W 5 7 29.95 1014 5 8 0.00 0.00
7:12 am 07:12 Partly Cloudy with Mist and Fog 63 17.2 63 17.2 100 100 Calm 29.97 1015 3 4 0.00 0.00
7:24 am 07:24 Partly Cloudy with Mist and Fog 63 17.2 63 17.2 100 100 Calm 29.98 1015 5 8 0.00 0.00
7:52 am 07:52 Partly Cloudy with Mist and Fog 63 17.2 63 17.2 100 100 NNW 5 7 29.97 1015 5 8 0.00 0.00
8:23 am 08:23 Partly Cloudy with Mist and Fog 66 18.9 65 18.3 96 96 N 8 13 29.97 1015 2 2 0.00 0.00
8:41 am 08:41 Mostly Cloudy with Mist and Fog 67 19.4 66 18.9 97 97 NNW 9 15 29.98 1015 2 2 0.00 0.00
8:52 am 08:52 Cloudy with Mist and Fog 66 18.9 66 18.9 100 100 NNW 7 11 29.98 1015 2 2 0.00 0.00
9:52 am 09:52 Cloudy with Mist and Fog 67 19.4 67 19.4 100 100 NW 6 9 29.98 1015 2 2 0.00 0.00
10:15 am 10:15 Cloudy with Mist and Fog 68 20 66 18.9 93 93 NW 6 9 29.99 1015 2 2 0.00 0.00
10:23 am 10:23 Cloudy with Mist and Fog 69 20.6 66 18.9 90 90 NNW 9 15 29.98 1015 3 5 0.00 0.00
10:52 am 10:52 Cloudy with Mist and Fog 70 21.1 66 18.9 87 87 N 8 13 29.99 1016 6 10 0.00 0.00
11:41 am 11:41 Cloudy 71 21.7 66 18.9 84 84 N 7 11 30.00 1016 7 11 0.00 0.00
11:52 am 11:52 Cloudy 71 21.7 66 18.9 84 84 NNW 8 13 30.01 1016 7 11 0.00 0.00
12:36 pm 12:36 Cloudy 72 22.2 66 18.9 82 82 W 6 9 30.00 1016 7 11 0.00 0.00
12:52 pm 12:52 Cloudy 73 22.8 66 18.9 79 79 WNW 10 17 30.00 1016 7 11 0.00 0.00
1:52 pm 13:52 Mostly Cloudy 74 23.3 66 18.9 76 76 NW 7 11 30.00 1016 10 16 0.00 0.00
2:52 pm 14:52 Mostly Cloudy 75 23.9 65 18.3 71 71 N 9 15 29.98 1015 10 16 0.00 0.00
3:52 pm 15:52 Mostly Cloudy 78 25.6 67 19.4 69 69 N 12 19 29.97 1015 10 16 0.00 0.00
4:23 pm 16:23 Mostly Cloudy 78 25.6 64 17.8 62 62 NNW 8 13 29.95 1014 10 16 0.00 0.00
4:52 pm 16:52 Mostly Cloudy 79 26.1 65 18.3 62 62 VRB 6 9 29.96 1014 10 16 0.00 0.00
5:52 pm 17:52 Mostly Cloudy 78 25.6 66 18.9 67 67 N 10 17 29.96 1015 10 16 0.00 0.00
6:52 pm 18:52 Partly Cloudy 78 25.6 64 17.8 62 62 NNW 9 15 29.96 1014 10 16 0.00 0.00
7:52 pm 19:52 Partly Cloudy 76 24.4 65 18.3 69 69 NW 6 9 29.96 1014 10 16 0.00 0.00
8:52 pm 20:52 Mostly Clear 72 22.2 65 18.3 79 79 NW 3 6 29.96 1015 10 16 0.00 0.00
9:52 pm 21:52 Mostly Clear 70 21.1 65 18.3 84 84 NW 3 6 29.98 1015 10 16 0.00 0.00
10:52 pm 22:52 Mostly Clear 66 18.9 46 7.8 48 48 Calm 29.98 1015 9 14 0.00 0.00
11:52 pm 23:52 Clear 66 18.9 64 17.8 93 93 WNW 5 7 29.99 1016 10 16 0.00 0.00

Powered by AerisWeather